This demonstration page uses our WeatherBlox Daily Observations layout. Learn more.

Left ArrowRight Arrow

Hourly Observations for November 16, 2016

Temp ( °F °C ) Dew Point ( °F °C ) Humidity (%) Winds ( mph kmh ) Pressure ( in mb ) Visibility ( mi km ) Precip ( " mm )
12:53 am 00:53 Clear 45 7.2 40 4.4 83 83 Calm 29.96 1015 10 16 0.00 0.00
1:53 am 01:53 Clear 44 6.7 40 4.4 85 85 Calm 29.96 1015 10 16 0.00 0.00
2:53 am 02:53 Clear 44 6.7 40 4.4 85 85 Calm 29.97 1015 10 16 0.00 0.00
3:53 am 03:53 Clear 42 5.6 39 3.9 89 89 Calm 29.97 1015 10 16 0.00 0.00
4:53 am 04:53 Clear 41 5 38 3.3 89 89 Calm 29.97 1015 10 16 0.00 0.00
5:53 am 05:53 Clear 41 5 38 3.3 89 89 Calm 29.98 1015 9 14 0.00 0.00
6:53 am 06:53 Clear 40 4.4 37 2.8 89 89 Calm 30.00 1016 10 16 0.00 0.00
7:53 am 07:53 Sunny 43 6.1 40 4.4 89 89 Calm 30.01 1016 10 16 0.00 0.00
8:53 am 08:53 Sunny 51 10.6 44 6.7 77 77 Calm 30.01 1016 9 14 0.00 0.00
9:53 am 09:53 Sunny 59 15 47 8.3 64 64 Calm 30.02 1017 10 16 0.00 0.00
10:53 am 10:53 Sunny 66 18.9 46 7.8 49 49 VRB 6 9 30.02 1017 10 16 0.00 0.00
11:53 am 11:53 Sunny 66 18.9 45 7.2 47 47 VRB 7 11 30.01 1016 10 16 0.00 0.00
12:53 pm 12:53 Sunny 69 20.6 42 5.6 38 38 W 9 15 29.99 1016 10 16 0.00 0.00
1:53 pm 13:53 Sunny 70 21.1 40 4.4 34 34 NW 9 15 29.98 1015 10 16 0.00 0.00
2:53 pm 14:53 Sunny 72 22.2 36 2.2 27 27 undefined N/A 29.96 1015 10 16 0.00 0.00
3:53 pm 15:53 Sunny 72 22.2 31 -0.6 22 22 WNW 9 15 29.97 1015 10 16 0.00 0.00
4:53 pm 16:53 Sunny 70 21.1 33 0.6 26 26 NW 5 7 29.97 1015 10 16 0.00 0.00
5:53 pm 17:53 Clear 62 16.7 35 1.7 37 37 Calm 29.98 1015 10 16 0.00 0.00
6:53 pm 18:53 Clear 56 13.3 38 3.3 51 51 Calm 30.00 1016 10 16 0.00 0.00
7:53 pm 19:53 Clear 52 11.1 39 3.9 61 61 Calm 30.02 1017 10 16 0.00 0.00
8:53 pm 20:53 Clear 49 9.4 39 3.9 69 69 Calm 30.03 1017 10 16 0.00 0.00
9:53 pm 21:53 Clear 47 8.3 39 3.9 74 74 Calm 30.04 1017 10 16 0.00 0.00
10:53 pm 22:53 Clear 45 7.2 39 3.9 80 80 Calm 30.04 1017 10 16 0.00 0.00
11:53 pm 23:53 Clear 47 8.3 39 3.9 74 74 Calm 30.04 1017 10 16 0.00 0.00

Powered by AerisWeather